METEOR 2-5 DEB, 45512

Orbit data source: Space-Track

METEOR 2-5 DEB, 45512 is space debris in LEO originally from a launch on Wed, 31 Oct 1979 UTC launched from the Plesetsk Missile And Space Complex (PKMTR). Debris objects in space refer to the collection of defunct objects orbiting the Earth. Examples of debris include non-operational satellites, rocket bodies, and fragments generated from explosions, collisions, or faulty payload assembly.

Loading next visibility...
Identifier
45512, 1979-095CU
Orbit
LEO
Country
Flag of CISCIS
Related business
Manufacturer
Unknown
Mission
Spacecraft
Bus & Motor
Unknown
Mass
Unknown
Launch date (UTC)
1979-10-31 (46 years ago)
Launch vehicle
Unknown
Launch site
Plesetsk Missile And Space Complex (PKMTR)
Object type
Payload
Rocket body
Debris
Shape & HBR
Unknown shape, 0.1 m
Radar Cross Section
Small (<0.1 m²)

Expand to show TLE details & history
Last TLE update: 2 days ago

TLE from 2 days ago
0 METEOR 2-5 DEB
1 45512U 79095CU  25292.67938781  .00010887  00000-0  45562-2 0  9994
2 45512  81.2214  75.0256 0012756 204.8766 155.1800 14.25939576531804
Epoch: 2025-10-19T16:18Z
TLE epoch observation values (Epoch: 2025-10-19T16:18:19.106Z)
Latitude
-0.00007°
Longitude
162.05339°
Altitude
816.576 km
Speed
7.441 km/s
True Right ascension
05h 00m 06s
True Declination
0° 00' 00"
Sunlit
Object was in full shadow at epoch
Visualization orbit readout
Latitude
Unknown
Longitude
Unknown
Altitude
Unknown
Speed
Unknown
Apparent Right ascension
Unknown
Apparent Declination
Unknown
Sunlit
N/A
Visualization observer readout
Local Sidereal Time
23:49:38
Azimuth
Unknown
Elevation
Unknown
Doppler factor
Unknown
Orbital elements
Apogee altitude
811.649 km
Perigee altitude
793.33 km
Semi-major axis
7,180.626 km
Eccentricity
0.00128
Inclination
81.2214°
RAAN
75.0256°
Arg. of periapsis
204.8766°
True anomaly
155.24127°
Mean anomaly
155.18°
Eccentric anomaly
155.21064°
Mean motion
3.56697 °/min
Orbital period
100.93 mins
BSTAR
0.0045562
Loading maneuver chart data...
Computing Atmospheric mass density...
Loading historical data...
Loading historical data...
Loading historical data...
Loading historical data...
Loading historical data...
Loading historical data...
Loading historical data...

Documentation

Showing up to 5 results
|